Location: Balmoral
(33.0667°S, 151.5833°E)
Time: 04:07:26
(UTC+00:00)

Lacrosse 5 rocket - Pass Details

Date: 18 September 2020
Orbit: 460 x 635 km, 57.0° (Epoch: 23 October)

Event Time Altitude Azimuth Distance (km) Brightness Sun altitude
Exits shadow 18:51:58 18° 294° (WNW) 1,443 2.9 -12.4°
Maximum altitude 18:54:51 43° 228° (SW) 785 1.8 -11.8°
Drops below altitude 10° 18:58:43 10° 155° (SSE) 1,790 4.3 -11.0°
Sets 19:00:57 0° 148° (SSE) 2,654 5.4 -10.5°
